FW5818 Weather Reports


Display with metric or nautical units.
time (UTC)temp
F
wind
direction
speed
MPH
gust
MPH
rain 1hr
in
rain 24hr
in
rain mn
in
humidity
%
barometer
mb
20260505124604 64 0 0.0 3.0 0.01 0.01 0.01 93 1008.3
20260505123106 64 0 0.0 2.0 0.00 0.00 0.00 92 1008.2
20260505121548 64 170 0.0 4.0 0.00 0.00 0.00 91 1008.1
20260505120053 65 0 0.0 5.0 0.00 0.00 0.00 89 1007.9
20260505114559 65 186 1.0 6.0 0.00 0.00 0.00 88 1007.7
20260505113050 66 159 1.0 9.0 0.00 0.00 0.00 86 1007.4
20260505111546 67 160 2.0 7.0 0.00 0.00 0.00 84 1006.9
20260505101552 66 151 1.0 9.0 0.00 0.00 0.00 82 1007.3
20260505100046 66 0 1.0 8.0 0.00 0.00 0.00 81 1007.0
20260505094549 66 192 3.0 8.0 0.00 0.00 0.00 81 1006.7
20260505093052 66 124 2.0 13.0 0.00 0.00 0.00 80 1006.7
20260505091549 66 131 0.0 7.0 0.00 0.00 0.00 80 1006.9
20260505090100 66 78 1.0 13.0 0.00 0.00 0.00 79 1006.9
20260505084546 66 136 2.0 7.0 0.00 0.00 0.00 79 1007.0
20260505083103 66 212 1.0 7.0 0.00 0.00 0.00 78 1007.1
20260505081551 65 0 1.0 7.0 0.00 0.00 0.00 78 1007.3
20260505080053 65 128 1.0 9.0 0.00 0.00 0.00 77 1007.6
20260505074549 65 148 1.0 6.0 0.00 0.00 0.00 76 1007.7
20260505073058 66 198 1.0 8.0 0.00 0.00 0.00 75 1007.5
20260505071545 66 148 1.0 11.0 0.00 0.00 0.00 74 1007.8
20260505070053 66 203 3.0 11.0 0.00 0.00 0.00 72 1008.0
20260505064544 66 0 1.0 10.0 0.00 0.00 0.00 72 1008.2
20260505063045 66 130 2.0 8.0 0.00 0.00 0.00 71 1008.6
20260505061544 66 170 1.0 8.0 0.00 0.00 0.00 70 1008.5
20260505060052 66 126 0.0 11.0 0.00 0.00 0.00 69 1008.8
20260505054549 66 0 0.0 11.0 0.00 0.00 0.00 69 1008.9
20260505053048 66 169 0.0 5.0 0.00 0.00 0.00 68 1009.2
20260505051547 66 0 0.0 5.0 0.00 0.00 0.00 68 1009.2
20260505050120 66 0 0.0 5.0 0.00 0.00 0.00 68 1009.2
20260505041553 67 162 0.0 4.0 0.00 0.00 0.00 68 1009.6
20260505040056 67 0 0.0 4.0 0.00 0.00 0.00 67 1009.6
20260505034545 68 157 0.0 10.0 0.00 0.00 0.00 67 1009.7
20260505033048 68 0 0.0 3.0 0.00 0.00 0.00 66 1009.8
20260505031549 69 167 0.0 4.0 0.00 0.00 0.00 66 1009.7
20260505030048 69 195 0.0 5.0 0.00 0.00 0.00 65 1009.5
20260505024543 69 203 0.0 4.0 0.00 0.00 0.00 65 1009.2
20260505023045 69 0 0.0 6.0 0.00 0.00 0.00 65 1009.1
20260505021545 69 0 0.0 3.0 0.00 0.00 0.00 65 1008.9
20260505020045 70 0 0.0 3.0 0.00 0.00 0.00 64 1008.9
20260505014603 70 153 1.0 6.0 0.00 0.00 0.00 64 1008.9
20260505013051 70 144 0.0 4.0 0.00 0.00 0.00 63 1008.8
20260505011545 71 157 1.0 7.0 0.00 0.00 0.00 61 1008.8
20260505010044 72 0 0.0 5.0 0.00 0.00 0.00 61 1008.6
20260505004547 72 150 0.0 4.0 0.00 0.00 0.00 61 1008.6
20260505003044 73 0 0.0 6.0 0.00 0.00 0.00 60 1008.7
20260505001556 73 0 1.0 4.0 0.00 0.00 0.00 59 1008.7
20260505000107 74 142 2.0 6.0 0.00 0.00 0.00 58 1008.7
20260504234605 74 163 1.0 7.0 0.00 0.00 0.00 57 1008.8
20260504233050 75 157 1.0 11.0 0.00 0.00 0.00 56 1009.0
20260504231545 76 173 2.0 12.0 0.00 0.00 0.00 55 1009.2
20260504230048 76 197 3.0 9.0 0.00 0.00 0.00 54 1009.3
20260504224605 77 0 2.0 9.0 0.00 0.00 0.00 56 1009.5
20260504223053 77 128 2.0 12.0 0.00 0.00 0.00 54 1009.4
20260504221552 77 132 3.0 10.0 0.00 0.00 0.00 53 1009.6
20260504220050 77 123 2.0 10.0 0.00 0.00 0.00 54 1009.6
20260504214546 78 170 2.0 11.0 0.00 0.00 0.00 52 1010.0
20260504213104 78 184 3.0 10.0 0.00 0.00 0.00 53 1009.9
20260504211546 78 202 4.0 11.0 0.00 0.00 0.00 52 1010.3
20260504210047 78 69 1.0 16.0 0.00 0.00 0.00 53 1010.5
20260504204553 78 157 4.0 15.0 0.00 0.00 0.00 52 1010.8
20260504203059 78 229 3.0 16.0 0.00 0.00 0.00 51 1010.7
20260504201545 77 246 4.0 12.0 0.00 0.00 0.00 51 1011.1
20260504200051 77 116 5.0 13.0 0.00 0.00 0.00 51 1011.5
20260504194559 77 139 5.0 21.0 0.00 0.00 0.00 51 1011.7
20260504193053 77 165 5.0 16.0 0.00 0.00 0.00 54 1011.8
20260504191547 76 176 3.0 14.0 0.00 0.00 0.00 54 1012.1
20260504190058 76 123 6.0 27.0 0.00 0.00 0.00 51 1012.2
20260504184543 76 200 5.0 13.0 0.00 0.00 0.00 53 1012.4
20260504183048 76 182 6.0 13.0 0.00 0.00 0.00 53 1012.5
20260504181545 76 183 4.0 17.0 0.00 0.00 0.00 53 1012.7
20260504180049 75 105 4.0 13.0 0.00 0.00 0.00 53 1012.8
20260504174544 75 66 3.0 10.0 0.00 0.00 0.00 55 1012.9
20260504173050 74 179 3.0 15.0 0.00 0.00 0.00 54 1013.5
20260504171547 74 165 3.0 12.0 0.00 0.00 0.00 55 1013.5